,,PA_Meas_PMT16A,,PR_Meas_QMR101_102,,RH_Meas_QMH101,,SR_Meas_QMS101,,TA_Meas_QMH101,,GenWind,,GenWind,
time,status,PA,status,PR,status,RH,status,SR,status,TA,status,DirAvg,status,SpdAvg,
2014-01-01, 00:00:04,VALID,919.208,VALID,0,VALID,96.9089,VALID,0,VALID,19.6068,VALID,127,VALID,1.24648,
2014-01-01, 00:01:04,VALID,919.196,VALID,0,VALID,96.9089,VALID,0,VALID,19.5858,VALID,128,VALID,1.11992,
2014-01-01, 00:02:04,VALID,919.172,VALID,0,VALID,96.9012,VALID,0,VALID,19.6263,VALID,121,VALID,0.990234,
2014-01-01, 00:03:04,VALID,919.183,VALID,0,VALID,96.8631,VALID,0,VALID,19.6458,VALID,152,VALID,0.788672,
2014-01-01, 00:04:04,VALID,919.179,VALID,0,VALID,96.8707,VALID,0,VALID,19.6248,VALID,133,VALID,1.26211,
2014-01-01, 00:05:04,VALID,919.182,VALID,0,VALID,96.8555,VALID,0,VALID,19.6443,VALID,156,VALID,0.832422,
2014-01-01, 00:06:04,VALID,919.177,VALID,0,VALID,96.8403,VALID,0,VALID,19.6638,VALID,140,VALID,0.927344,
2014-01-01, 00:07:04,VALID,919.129,VALID,0,VALID,96.825,VALID,0,VALID,19.6443,VALID,135,VALID,1.07695,
2014-01-01, 00:08:04,VALID,919.118,VALID,0,VALID,96.7869,VALID,0,VALID,19.6443,VALID,140,VALID,0.802344,
2014-01-01, 00:09:04,VALID,919.102,VALID,0,VALID,96.7793,VALID,0,VALID,19.6248,VALID,141,VALID,1.42773,
2014-01-01, 00:10:04,VALID,919.098,VALID,0,VALID,96.7564,VALID,0,VALID,19.6248,VALID,141,VALID,0.933203,
2014-01-01, 00:11:04,VALID,919.108,VALID,0,VALID,96.7488,VALID,0,VALID,19.6248,VALID,142,VALID,1.25625,
2014-01-01, 00:12:04,VALID,919.125,VALID,0,VALID,96.7335,VALID,0,VALID,19.6458,VALID,154,VALID,0.915625,
2014-01-01, 00:13:04,VALID,919.065,VALID,0,VALID,96.7335,VALID,0,VALID,19.6248,VALID,152,VALID,1.28516,
2014-01-01, 00:14:04,VALID,919.059,VALID,0,VALID,96.7183,VALID,0,VALID,19.6248,VALID,155,VALID,0.724219,
2014-01-01, 00:15:04,VALID,919.09,VALID,0,VALID,96.6954,VALID,0,VALID,19.6458,VALID,182,VALID,0.396484,
2014-01-01, 00:16:04,VALID,919.06,VALID,0,VALID,96.6954,VALID,0,VALID,19.6263,VALID,171,VALID,0.925,
2014-01-01, 00:17:04,VALID,919.041,VALID,0,VALID,96.6649,VALID,0,VALID,19.6458,VALID,159,VALID,0.600391,
2014-01-01, 00:18:04,VALID,919.035,VALID,0,VALID,96.6725,VALID,0,VALID,19.6053,VALID,167,VALID,0.889453,
2014-01-01, 00:19:04,VALID,919.012,VALID,0,VALID,96.6649,VALID,0,VALID,19.5858,VALID,147,VALID,0.603516,
2014-01-01, 00:20:04,VALID,919.015,VALID,0,VALID,96.6344,VALID,0,VALID,19.5858,VALID,168,VALID,0.554688,
2014-01-01, 00:21:04,VALID,919.002,VALID,0,VALID,96.6497,VALID,0,VALID,19.6068,VALID,124,VALID,0.830469,
2014-01-01, 00:22:04,VALID,918.981,VALID,0,VALID,96.6268,VALID,0,VALID,19.5468,VALID,148,VALID,0.763281,
2014-01-01, 00:23:04,VALID,918.96,VALID,0,VALID,96.6268,VALID,0,VALID,19.5468,VALID,112,VALID,0.792578,
2014-01-01, 00:24:04,VALID,918.997,VALID,0,VALID,96.6039,VALID,0,VALID,19.5468,VALID,119,VALID,0.204297,
2014-01-01, 00:25:04,VALID,918.985,VALID,0,VALID,96.6115,VALID,0.107441,VALID,19.5273,VALID,119,VALID,0.233203,
2014-01-01, 00:26:04,VALID,918.965,VALID,0,VALID,96.5811,VALID,0,VALID,19.5078,VALID,119,VALID,0.395703,
2014-01-01, 00:27:04,VALID,918.958,VALID,0,VALID,96.5963,VALID,0,VALID,19.5288,VALID,119,VALID,0.321484,
2014-01-01, 00:28:04,VALID,918.909,VALID,0,VALID,96.5734,VALID,0.107441,VALID,19.5078,VALID,119,VALID,0.155859,
2014-01-01, 00:29:04,VALID,918.904,VALID,0,VALID,96.5658,VALID,0,VALID,19.4898,VALID,119,VALID,0.003125,
2014-01-01, 00:30:04,VALID,918.907,VALID,0,VALID,96.5734,VALID,0,VALID,19.4493,VALID,119,VALID,0.364062,
2014-01-01, 00:31:04,VALID,918.884,VALID,0,VALID,96.5506,VALID,0,VALID,19.4298,VALID,119,VALID,0.0519531,
2014-01-01, 00:32:04,VALID,918.858,VALID,0,VALID,96.5353,VALID,0,VALID,19.4313,VALID,119,VALID,0.338672,
2014-01-01, 00:33:04,VALID,918.87,VALID,0,VALID,96.5429,VALID,0.107441,VALID,19.4103,VALID,114,VALID,0.663281,
2014-01-01, 00:34:04,VALID,918.847,VALID,0,VALID,96.5353,VALID,0.107441,VALID,19.3908,VALID,107,VALID,0.516406,
2014-01-01, 00:35:04,VALID,918.843,VALID,0,VALID,96.5124,VALID,0,VALID,19.3923,VALID,107,VALID,0.541406,
2014-01-01, 00:36:04,VALID,918.794,VALID,0,VALID,96.5201,VALID,0,VALID,19.3713,VALID,129,VALID,0.242188,
2014-01-01, 00:37:04,VALID,918.805,VALID,0,VALID,96.5124,VALID,0,VALID,19.3713,VALID,129,VALID,0.676172,
2014-01-01, 00:38:04,VALID,918.801,VALID,0,VALID,96.5124,VALID,0,VALID,19.3518,VALID,125,VALID,0.840625,
2014-01-01, 00:39:04,VALID,918.766,VALID,0,VALID,96.5124,VALID,0.107441,VALID,19.3518,VALID,132,VALID,1.11563,
2014-01-01, 00:40:04,VALID,918.744,VALID,0,VALID,96.5277,VALID,0.107441,VALID,19.3713,VALID,123,VALID,1.03906,
2014-01-01, 00:41:04,VALID,918.767,VALID,0,VALID,96.5048,VALID,0,VALID,19.3908,VALID,131,VALID,0.467969,
2014-01-01, 00:42:04,VALID,918.746,VALID,0,VALID,96.5201,VALID,0,VALID,19.3713,VALID,137,VALID,0.715234,
2014-01-01, 00:43:04,VALID,918.724,VALID,0,VALID,96.4896,VALID,0,VALID,19.3908,VALID,136,VALID,0.836328,
2014-01-01, 00:44:04,VALID,918.692,VALID,0,VALID,96.4743,VALID,0,VALID,19.3713,VALID,135,VALID,0.483203,
2014-01-01, 00:45:04,VALID,918.67,VALID,0,VALID,96.4591,VALID,0.107441,VALID,19.3503,VALID,135,VALID,0.730469,
2014-01-01, 00:46:04,VALID,918.644,VALID,0,VALID,96.4591,VALID,0,VALID,19.3713,VALID,117,VALID,0.792969,
2014-01-01, 00:47:04,VALID,918.618,VALID,0,VALID,96.3981,VALID,0,VALID,19.3518,VALID,117,VALID,0.61875,
2014-01-01, 00:48:04,VALID,918.611,VALID,0,VALID,96.3676,VALID,0,VALID,19.3518,VALID,116,VALID,0.863281,
2014-01-01, 00:49:04,VALID,918.612,VALID,0,VALID,96.3676,VALID,0,VALID,19.3533,VALID,134,VALID,0.784766,
2014-01-01, 00:50:04,VALID,918.635,VALID,0,VALID,96.3447,VALID,0,VALID,19.3128,VALID,129,VALID,0.658203,
2014-01-01, 00:51:04,VALID,918.62,VALID,0,VALID,96.3447,VALID,0,VALID,19.3323,VALID,130,VALID,0.883594,
2014-01-01, 00:52:04,VALID,918.605,VALID,0,VALID,96.3524,VALID,0,VALID,19.3533,VALID,132,VALID,0.884375,
2014-01-01, 00:53:04,VALID,918.596,VALID,0,VALID,96.36,VALID,0,VALID,19.3533,VALID,131,VALID,0.673828,
2014-01-01, 00:54:04,VALID,918.595,VALID,0,VALID,96.36,VALID,0,VALID,19.3323,VALID,130,VALID,0.915234,
2014-01-01, 00:55:04,VALID,918.606,VALID,0,VALID,96.3676,VALID,0,VALID,19.3518,VALID,130,VALID,0.889453,
2014-01-01, 00:56:04,VALID,918.627,VALID,0,VALID,96.3371,VALID,0,VALID,19.3713,VALID,138,VALID,1.1418,
2014-01-01, 00:57:04,VALID,918.585,VALID,0,VALID,96.3295,VALID,0,VALID,19.4118,VALID,124,VALID,0.947656,
2014-01-01, 00:58:04,VALID,918.577,VALID,0,VALID,96.3219,VALID,0,VALID,19.3908,VALID,135,VALID,0.626953,
2014-01-01, 00:59:04,VALID,918.596,VALID,0,VALID,96.2837,VALID,0,VALID,19.3713,VALID,140,VALID,0.733594,
2014-01-01, 01:00:04,VALID,918.575,VALID,0,VALID,96.2228,VALID,0,VALID,19.3923,VALID,140,VALID,0.841406,
2014-01-01, 01:01:04,VALID,918.585,VALID,0,VALID,96.2228,VALID,0,VALID,19.3713,VALID,140,VALID,0.713672,
2014-01-01, 01:02:04,VALID,918.615,VALID,0,VALID,96.1923,VALID,0,VALID,19.3728,VALID,137,VALID,0.378516,
2014-01-01, 01:03:04,VALID,918.585,VALID,0,VALID,96.1465,VALID,0,VALID,19.3518,VALID,137,VALID,0.621094,
2014-01-01, 01:04:04,VALID,918.553,VALID,0,VALID,96.116,VALID,0,VALID,19.3533,VALID,136,VALID,0.728516,
2014-01-01, 01:05:04,VALID,918.569,VALID,0,VALID,96.1008,VALID,0,VALID,19.3113,VALID,137,VALID,0.695703,
2014-01-01, 01:06:04,VALID,918.522,VALID,0,VALID,96.1541,VALID,0,VALID,19.3908,VALID,137,VALID,0.669531,
2014-01-01, 01:07:04,VALID,918.547,VALID,0,VALID,96.1465,VALID,0,VALID,19.3908,VALID,137,VALID,0.45625,
2014-01-01, 01:08:04,VALID,918.549,VALID,0,VALID,96.1313,VALID,0,VALID,19.4118,VALID,137,VALID,0.528125,
2014-01-01, 01:09:04,VALID,918.56,VALID,0,VALID,96.1084,VALID,0,VALID,19.3908,VALID,139,VALID,0.510547,
2014-01-01, 01:10:04,VALID,918.571,VALID,0,VALID,96.055,VALID,0.107441,VALID,19.3518,VALID,139,VALID,0.4875,
2014-01-01, 01:11:04,VALID,918.556,VALID,0,VALID,96.0169,VALID,0,VALID,19.2933,VALID,139,VALID,0.834375,
2014-01-01, 01:12:04,VALID,918.557,VALID,0,VALID,95.9941,VALID,0,VALID,19.3128,VALID,149,VALID,1.12188,
2014-01-01, 01:13:04,VALID,918.56,VALID,0,VALID,95.9941,VALID,0,VALID,19.2933,VALID,166,VALID,0.995703,
2014-01-01, 01:14:04,VALID,918.58,VALID,0,VALID,95.9636,VALID,0,VALID,19.2738,VALID,166,VALID,0.439063,
2014-01-01, 01:15:04,VALID,918.56,VALID,0,VALID,95.9178,VALID,0,VALID,19.2558,VALID,166,VALID,0.107813,
2014-01-01, 01:16:04,VALID,918.527,VALID,0,VALID,95.9102,VALID,0.107441,VALID,19.1958,VALID,166,VALID,0.494531,
2014-01-01, 01:17:04,VALID,918.487,VALID,0,VALID,95.9102,VALID,0,VALID,19.1958,VALID,166,VALID,0.525,
2014-01-01, 01:18:04,VALID,918.459,VALID,0,VALID,95.9559,VALID,0,VALID,19.2168,VALID,166,VALID,0.739062,
2014-01-01, 01:19:04,VALID,918.422,VALID,0,VALID,95.9712,VALID,0,VALID,19.1568,VALID,166,VALID,0.543359,
2014-01-01, 01:20:04,VALID,918.409,VALID,0,VALID,96.0093,VALID,0,VALID,19.1568,VALID,166,VALID,0.540234,
2014-01-01, 01:21:04,VALID,918.396,VALID,0,VALID,96.0398,VALID,0,VALID,19.1388,VALID,166,VALID,0.296094,
2014-01-01, 01:22:04,VALID,918.385,VALID,0,VALID,96.0474,VALID,0,VALID,19.0983,VALID,166,VALID,0.404687,
2014-01-01, 01:23:04,VALID,918.367,VALID,0,VALID,96.0627,VALID,0,VALID,19.0788,VALID,166,VALID,0.289063,
2014-01-01, 01:24:04,VALID,918.383,VALID,0,VALID,96.0779,VALID,0,VALID,19.0608,VALID,166,VALID,0.00195313,
2014-01-01, 01:25:04,VALID,918.367,VALID,0,VALID,96.1236,VALID,0,VALID,19.0803,VALID,166,VALID,0.795313,
2014-01-01, 01:26:04,VALID,918.352,VALID,0,VALID,96.1618,VALID,0,VALID,19.0608,VALID,152,VALID,0.770703,
2014-01-01, 01:27:04,VALID,918.361,VALID,0,VALID,96.1999,VALID,0,VALID,19.0413,VALID,150,VALID,0.792578,
2014-01-01, 01:28:04,VALID,918.354,VALID,0,VALID,96.1923,VALID,0,VALID,19.0203,VALID,154,VALID,0.744531,
2014-01-01, 01:29:04,VALID,918.349,VALID,0,VALID,96.238,VALID,0,VALID,19.0413,VALID,143,VALID,1.23125,
2014-01-01, 01:30:04,VALID,918.327,VALID,0,VALID,96.2761,VALID,0,VALID,19.0398,VALID,141,VALID,1.325,
2014-01-01, 01:31:04,VALID,918.34,VALID,0,VALID,96.36,VALID,0,VALID,19.1388,VALID,176,VALID,1.2707,
2014-01-01, 01:32:04,VALID,918.293,VALID,0,VALID,96.4362,VALID,0,VALID,19.1388,VALID,152,VALID,0.846484,
2014-01-01, 01:33:04,VALID,918.265,VALID,0,VALID,96.4362,VALID,0,VALID,19.1193,VALID,139,VALID,1.1082,
2014-01-01, 01:34:04,VALID,918.239,VALID,0,VALID,96.4515,VALID,0,VALID,19.0608,VALID,138,VALID,0.910156,
2014-01-01, 01:35:04,VALID,918.243,VALID,0,VALID,96.4286,VALID,0,VALID,19.0218,VALID,143,VALID,0.560156,
2014-01-01, 01:36:04,VALID,918.231,VALID,0,VALID,96.4286,VALID,0,VALID,18.9438,VALID,124,VALID,0.658203,
2014-01-01, 01:37:04,VALID,918.223,VALID,0,VALID,96.421,VALID,0,VALID,18.9438,VALID,124,VALID,0.517578,
2014-01-01, 01:38:04,VALID,918.189,VALID,0,VALID,96.4438,VALID,0,VALID,18.8853,VALID,124,VALID,0.632813,
2014-01-01, 01:39:04,VALID,918.186,VALID,0,VALID,96.4667,VALID,0,VALID,18.8853,VALID,124,VALID,0.819531,
2014-01-01, 01:40:04,VALID,918.197,VALID,0,VALID,96.4743,VALID,0,VALID,18.8853,VALID,123,VALID,0.781641,
2014-01-01, 01:41:04,VALID,918.188,VALID,0,VALID,96.5201,VALID,0,VALID,18.8644,VALID,125,VALID,0.940234,
2014-01-01, 01:42:04,VALID,918.173,VALID,0,VALID,96.5506,VALID,0,VALID,18.9048,VALID,126,VALID,1.13633,
2014-01-01, 01:43:04,VALID,918.155,VALID,0,VALID,96.6115,VALID,0,VALID,18.9229,VALID,138,VALID,0.703906,
2014-01-01, 01:44:04,VALID,918.133,VALID,0,VALID,96.6115,VALID,0,VALID,18.9633,VALID,146,VALID,1.20039,
2014-01-01, 01:45:04,VALID,918.139,VALID,0,VALID,96.642,VALID,0,VALID,19.0023,VALID,133,VALID,0.941016,
2014-01-01, 01:46:04,VALID,918.112,VALID,0,VALID,96.6497,VALID,0,VALID,19.0008,VALID,139,VALID,0.776953,
2014-01-01, 01:47:04,VALID,918.127,VALID,0,VALID,96.6344,VALID,0,VALID,19.0218,VALID,173,VALID,0.572656,
2014-01-01, 01:48:04,VALID,918.107,VALID,0,VALID,96.6268,VALID,0,VALID,19.0023,VALID,176,VALID,0.274609,
2014-01-01, 01:49:04,VALID,918.118,VALID,0,VALID,96.6268,VALID,0,VALID,19.0218,VALID,176,VALID,0.255469,
2014-01-01, 01:50:04,VALID,918.114,VALID,0,VALID,96.6192,VALID,0,VALID,19.0218,VALID,158,VALID,0.855859,
2014-01-01, 01:51:04,VALID,918.122,VALID,0,VALID,96.5963,VALID,0,VALID,19.0413,VALID,157,VALID,0.146484,
2014-01-01, 01:52:04,VALID,918.144,VALID,0,VALID,96.6039,VALID,0,VALID,19.0008,VALID,157,VALID,0,
2014-01-01, 01:53:04,VALID,918.127,VALID,0,VALID,96.6039,VALID,0,VALID,18.9828,VALID,157,VALID,0.367969,
2014-01-01, 01:54:04,VALID,918.156,VALID,0,VALID,96.5658,VALID,0,VALID,18.9424,VALID,157,VALID,0.369922,
2014-01-01, 01:55:04,VALID,918.175,VALID,0,VALID,96.5734,VALID,0,VALID,18.9424,VALID,157,VALID,0,
2014-01-01, 01:56:04,VALID,918.176,VALID,0,VALID,96.5734,VALID,0,VALID,18.8839,VALID,157,VALID,0,
2014-01-01, 01:57:04,VALID,918.124,VALID,0,VALID,96.5734,VALID,0.107441,VALID,18.8839,VALID,164,VALID,0.384375,
2014-01-01, 01:58:04,VALID,918.136,VALID,0,VALID,96.5963,VALID,0,VALID,18.9048,VALID,164,VALID,0.0660156,
2014-01-01, 01:59:04,VALID,918.118,VALID,0,VALID,96.5734,VALID,0,VALID,18.8658,VALID,164,VALID,0,
2014-01-01, 02:00:04,VALID,918.069,VALID,0,VALID,96.5811,VALID,0,VALID,18.8268,VALID,164,VALID,0,
2014-01-01, 02:01:04,VALID,918.042,VALID,0,VALID,96.5734,VALID,0,VALID,18.7683,VALID,164,VALID,0,
2014-01-01, 02:02:04,VALID,918.022,VALID,0,VALID,96.5201,VALID,0,VALID,18.7293,VALID,164,VALID,0,
2014-01-01, 02:03:04,VALID,917.996,VALID,0,VALID,96.5734,VALID,0,VALID,18.7084,VALID,164,VALID,0,
2014-01-01, 02:04:04,VALID,917.988,VALID,0,VALID,96.5963,VALID,0,VALID,18.7683,VALID,164,VALID,0.202734,
2014-01-01, 02:05:04,VALID,917.942,VALID,0,VALID,96.6497,VALID,0,VALID,18.7864,VALID,145,VALID,0.574609,
2014-01-01, 02:06:04,VALID,917.946,VALID,0,VALID,96.6649,VALID,0,VALID,18.8073,VALID,145,VALID,0.544922,
2014-01-01, 02:07:04,VALID,917.953,VALID,0,VALID,96.6802,VALID,0,VALID,18.7864,VALID,146,VALID,0.41875,
2014-01-01, 02:08:04,VALID,917.917,VALID,0,VALID,96.6954,VALID,0,VALID,18.8073,VALID,147,VALID,0.675781,
2014-01-01, 02:09:04,VALID,917.927,VALID,0,VALID,96.7183,VALID,0,VALID,18.8658,VALID,153,VALID,0.917578,
2014-01-01, 02:10:04,VALID,917.913,VALID,0,VALID,96.7183,VALID,0,VALID,18.8268,VALID,153,VALID,0.735156,
2014-01-01, 02:11:04,VALID,917.906,VALID,0,VALID,96.7183,VALID,0,VALID,18.8268,VALID,141,VALID,1.05234,
2014-01-01, 02:12:04,VALID,917.906,VALID,0,VALID,96.7335,VALID,0,VALID,18.8254,VALID,138,VALID,0.870703,
2014-01-01, 02:13:04,VALID,917.857,VALID,0,VALID,96.7411,VALID,0,VALID,18.8853,VALID,150,VALID,1.29531,
2014-01-01, 02:14:04,VALID,917.867,VALID,0,VALID,96.7564,VALID,0,VALID,18.8644,VALID,137,VALID,1.18711,
2014-01-01, 02:15:04,VALID,917.854,VALID,0,VALID,96.7335,VALID,0,VALID,18.8853,VALID,136,VALID,1.19805,
2014-01-01, 02:16:04,VALID,917.853,VALID,0,VALID,96.7107,VALID,0,VALID,18.8853,VALID,137,VALID,1.07227,
2014-01-01, 02:17:04,VALID,917.789,VALID,0,VALID,96.7488,VALID,0,VALID,18.9243,VALID,137,VALID,0.828906,
2014-01-01, 02:18:04,VALID,917.81,VALID,0,VALID,96.7335,VALID,0,VALID,18.9243,VALID,138,VALID,0.301172,
2014-01-01, 02:19:04,VALID,917.788,VALID,0,VALID,96.7107,VALID,0,VALID,18.9243,VALID,138,VALID,0.474609,
2014-01-01, 02:20:04,VALID,917.8,VALID,0,VALID,96.6802,VALID,0,VALID,18.8839,VALID,126,VALID,0.848828,
2014-01-01, 02:21:04,VALID,917.765,VALID,0,VALID,96.6802,VALID,0,VALID,18.8658,VALID,127,VALID,0.754687,
2014-01-01, 02:22:04,VALID,917.773,VALID,0,VALID,96.6573,VALID,0,VALID,18.8463,VALID,123,VALID,0.781641,
2014-01-01, 02:23:04,VALID,917.73,VALID,0,VALID,96.6344,VALID,0,VALID,18.8658,VALID,144,VALID,1.64063,
2014-01-01, 02:24:04,VALID,917.714,VALID,0,VALID,96.6649,VALID,0,VALID,18.8853,VALID,137,VALID,1.33711,
2014-01-01, 02:25:04,VALID,917.721,VALID,0,VALID,96.6649,VALID,0,VALID,18.9257,VALID,145,VALID,1.30664,
2014-01-01, 02:26:04,VALID,917.716,VALID,0,VALID,96.6649,VALID,0,VALID,18.9048,VALID,143,VALID,1.26797,
2014-01-01, 02:27:04,VALID,917.715,VALID,0,VALID,96.6725,VALID,0,VALID,18.9647,VALID,148,VALID,0.858203,
2014-01-01, 02:28:04,VALID,917.72,VALID,0,VALID,96.6497,VALID,0,VALID,18.9647,VALID,144,VALID,1.45156,
2014-01-01, 02:29:04,VALID,917.683,VALID,0,VALID,96.6268,VALID,0,VALID,18.9633,VALID,148,VALID,1.60664,
2014-01-01, 02:30:04,VALID,917.688,VALID,0,VALID,96.6268,VALID,0,VALID,18.9633,VALID,163,VALID,1.12109,
2014-01-01, 02:31:04,VALID,917.698,VALID,0,VALID,96.5887,VALID,0,VALID,18.9828,VALID,155,VALID,1.48203,
2014-01-01, 02:32:04,VALID,917.683,VALID,0,VALID,96.5658,VALID,0,VALID,18.9229,VALID,159,VALID,1.11602,
2014-01-01, 02:33:04,VALID,917.678,VALID,0,VALID,96.5201,VALID,0,VALID,18.8853,VALID,160,VALID,1.56875,
2014-01-01, 02:34:04,VALID,917.692,VALID,0,VALID,96.5048,VALID,0,VALID,18.8477,VALID,162,VALID,1.58633,
2014-01-01, 02:35:04,VALID,917.687,VALID,0,VALID,96.5048,VALID,0,VALID,18.7488,VALID,182,VALID,1.20664,
2014-01-01, 02:36:04,VALID,917.649,VALID,0,VALID,96.5048,VALID,0,VALID,18.7098,VALID,170,VALID,1.04766,
2014-01-01, 02:37:04,VALID,917.644,VALID,0,VALID,96.5124,VALID,0,VALID,18.6513,VALID,178,VALID,0.928906,
2014-01-01, 02:38:04,VALID,917.635,VALID,0,VALID,96.5734,VALID,0,VALID,18.6708,VALID,164,VALID,0.801953,
2014-01-01, 02:39:04,VALID,917.624,VALID,0,VALID,96.6039,VALID,0,VALID,18.6708,VALID,164,VALID,1.30508,
2014-01-01, 02:40:04,VALID,917.64,VALID,0,VALID,96.642,VALID,0,VALID,18.6513,VALID,165,VALID,1.1207,
2014-01-01, 02:41:04,VALID,917.63,VALID,0,VALID,96.6878,VALID,0,VALID,18.6319,VALID,134,VALID,0.807031,
2014-01-01, 02:42:04,VALID,917.572,VALID,0,VALID,96.703,VALID,0,VALID,18.6124,VALID,149,VALID,0.885938,
2014-01-01, 02:43:04,VALID,917.611,VALID,0,VALID,96.7259,VALID,0,VALID,18.6124,VALID,156,VALID,0.952734,
2014-01-01, 02:44:04,VALID,917.613,VALID,0,VALID,96.764,VALID,0,VALID,18.6319,VALID,150,VALID,0.789844,
2014-01-01, 02:45:04,VALID,917.604,VALID,0,VALID,96.7716,VALID,0,VALID,18.6528,VALID,143,VALID,0.589453,
2014-01-01, 02:46:04,VALID,917.609,VALID,0,VALID,96.7945,VALID,0,VALID,18.6723,VALID,143,VALID,0.642578,
2014-01-01, 02:47:04,VALID,917.58,VALID,0,VALID,96.8098,VALID,0,VALID,18.6513,VALID,145,VALID,0.861719,
2014-01-01, 02:48:05,VALID,917.599,VALID,0,VALID,96.8098,VALID,0,VALID,18.6903,VALID,139,VALID,1.07852,
2014-01-01, 02:49:05,VALID,917.59,VALID,0,VALID,96.8174,VALID,0,VALID,18.6708,VALID,131,VALID,0.753906,
2014-01-01, 02:50:05,VALID,917.521,VALID,0,VALID,96.825,VALID,0,VALID,18.6903,VALID,126,VALID,0.947656,
2014-01-01, 02:51:05,VALID,917.527,VALID,0,VALID,96.825,VALID,0,VALID,18.6708,VALID,126,VALID,0.455078,
2014-01-01, 02:52:05,VALID,917.552,VALID,0,VALID,96.8174,VALID,0,VALID,18.6708,VALID,126,VALID,0.396484,
2014-01-01, 02:53:05,VALID,917.559,VALID,0,VALID,96.8098,VALID,0,VALID,18.6513,VALID,126,VALID,0.374219,
2014-01-01, 02:54:05,VALID,917.521,VALID,0,VALID,96.8021,VALID,0,VALID,18.6513,VALID,126,VALID,0.106641,
2014-01-01, 02:55:05,VALID,917.535,VALID,0,VALID,96.7793,VALID,0,VALID,18.6528,VALID,126,VALID,0.0015625,
2014-01-01, 02:56:05,VALID,917.522,VALID,0,VALID,96.764,VALID,0,VALID,18.6124,VALID,126,VALID,0.277734,
2014-01-01, 02:57:05,VALID,917.495,VALID,0,VALID,96.7945,VALID,0,VALID,18.5929,VALID,126,VALID,0,
2014-01-01, 02:58:05,VALID,917.518,VALID,0,VALID,96.7564,VALID,0,VALID,18.5748,VALID,126,VALID,0,
2014-01-01, 02:59:05,VALID,917.519,VALID,0,VALID,96.7411,VALID,0,VALID,18.5748,VALID,126,VALID,0.367969,
2014-01-01, 03:00:05,VALID,917.523,VALID,0,VALID,96.764,VALID,0,VALID,18.5553,VALID,126,VALID,0.0992187,
2014-01-01, 03:01:05,VALID,917.52,VALID,0,VALID,96.7488,VALID,0,VALID,18.5553,VALID,126,VALID,0,
2014-01-01, 03:02:05,VALID,917.532,VALID,0,VALID,96.7411,VALID,0,VALID,18.5553,VALID,126,VALID,0,
2014-01-01, 03:03:05,VALID,917.506,VALID,0,VALID,96.7716,VALID,0,VALID,18.5344,VALID,126,VALID,0,
2014-01-01, 03:04:05,VALID,917.492,VALID,0,VALID,96.764,VALID,0,VALID,18.5358,VALID,126,VALID,0.303516,
2014-01-01, 03:05:05,VALID,917.474,VALID,0,VALID,96.7793,VALID,0,VALID,18.4968,VALID,126,VALID,0.523047,
2014-01-01, 03:06:05,VALID,917.48,VALID,0,VALID,96.7793,VALID,0,VALID,18.4759,VALID,126,VALID,0.316797,
2014-01-01, 03:07:05,VALID,917.466,VALID,0,VALID,96.7564,VALID,0,VALID,18.4759,VALID,126,VALID,0.616016,
2014-01-01, 03:08:05,VALID,917.443,VALID,0,VALID,96.764,VALID,0,VALID,18.4759,VALID,136,VALID,0.977344,
2014-01-01, 03:09:05,VALID,917.447,VALID,0,VALID,96.7945,VALID,0,VALID,18.5734,VALID,133,VALID,1.32813,
2014-01-01, 03:10:05,VALID,917.488,VALID,0,VALID,96.8021,VALID,0,VALID,18.6723,VALID,133,VALID,1.19492,
2014-01-01, 03:11:05,VALID,917.445,VALID,0,VALID,96.7945,VALID,0,VALID,18.6708,VALID,129,VALID,0.936328,
2014-01-01, 03:12:05,VALID,917.427,VALID,0,VALID,96.7869,VALID,0,VALID,18.6499,VALID,129,VALID,0.966406,
2014-01-01, 03:13:05,VALID,917.423,VALID,0,VALID,96.7183,VALID,0,VALID,18.6903,VALID,129,VALID,0.971094,
2014-01-01, 03:14:05,VALID,917.4,VALID,0,VALID,96.6878,VALID,0,VALID,18.6903,VALID,123,VALID,0.697656,
2014-01-01, 03:15:05,VALID,917.392,VALID,0,VALID,96.6497,VALID,0,VALID,18.6708,VALID,123,VALID,0.664063,
2014-01-01, 03:16:05,VALID,917.365,VALID,0,VALID,96.5887,VALID,0,VALID,18.6918,VALID,123,VALID,0.8,
2014-01-01, 03:17:05,VALID,917.374,VALID,0,VALID,96.5887,VALID,0,VALID,18.6903,VALID,123,VALID,0.660547,
2014-01-01, 03:18:05,VALID,917.356,VALID,0,VALID,96.5506,VALID,0,VALID,18.7113,VALID,123,VALID,0.938281,
2014-01-01, 03:19:05,VALID,917.321,VALID,0,VALID,96.5429,VALID,0,VALID,18.7293,VALID,123,VALID,0.845703,
2014-01-01, 03:20:05,VALID,917.302,VALID,0,VALID,96.5506,VALID,0,VALID,18.7683,VALID,123,VALID,0.897266,
2014-01-01, 03:21:05,VALID,917.283,VALID,0,VALID,96.4972,VALID,0,VALID,18.8087,VALID,123,VALID,0.969531,
2014-01-01, 03:22:05,VALID,917.278,VALID,0,VALID,96.4362,VALID,0,VALID,18.7878,VALID,123,VALID,0.825,
2014-01-01, 03:23:05,VALID,917.273,VALID,0,VALID,96.3676,VALID,0,VALID,18.7683,VALID,123,VALID,0.875781,
2014-01-01, 03:24:05,VALID,917.267,VALID,0,VALID,96.2837,VALID,0,VALID,18.7683,VALID,123,VALID,1.24922,
2014-01-01, 03:25:05,VALID,917.246,VALID,0,VALID,96.2075,VALID,0,VALID,18.7488,VALID,129,VALID,1.14023,
2014-01-01, 03:26:05,VALID,917.224,VALID,0,VALID,96.1236,VALID,0,VALID,18.7683,VALID,119,VALID,1.61914,
2014-01-01, 03:27:05,VALID,917.232,VALID,0,VALID,96.055,VALID,0,VALID,18.7878,VALID,120,VALID,1.32148,
2014-01-01, 03:28:05,VALID,917.227,VALID,0,VALID,95.9483,VALID,0,VALID,18.7878,VALID,112,VALID,1.28789,
2014-01-01, 03:29:05,VALID,917.199,VALID,0,VALID,95.895,VALID,0,VALID,18.7683,VALID,112,VALID,1.0168,
2014-01-01, 03:30:05,VALID,917.195,VALID,0,VALID,95.8492,VALID,0,VALID,18.7669,VALID,124,VALID,0.717969,
2014-01-01, 03:31:05,VALID,917.146,VALID,0,VALID,95.7806,VALID,0,VALID,18.7878,VALID,123,VALID,0.564844,
2014-01-01, 03:32:05,VALID,917.152,VALID,0,VALID,95.7501,VALID,0,VALID,18.7878,VALID,123,VALID,0.661328,
2014-01-01, 03:33:05,VALID,917.103,VALID,0,VALID,95.6739,VALID,0,VALID,18.7683,VALID,123,VALID,0.510938,
2014-01-01, 03:34:05,VALID,917.104,VALID,0,VALID,95.6434,VALID,0,VALID,18.7293,VALID,126,VALID,0.479297,
2014-01-01, 03:35:05,VALID,917.114,VALID,0,VALID,95.651,VALID,0,VALID,18.7098,VALID,156,VALID,0.848437,
2014-01-01, 03:36:05,VALID,917.13,VALID,0,VALID,95.6967,VALID,0,VALID,18.6708,VALID,156,VALID,0.449609,
2014-01-01, 03:37:05,VALID,917.135,VALID,0,VALID,95.7577,VALID,0,VALID,18.6513,VALID,156,VALID,0.533203,
2014-01-01, 03:38:05,VALID,917.118,VALID,0,VALID,95.8035,VALID,0,VALID,18.6124,VALID,156,VALID,0.426172,
2014-01-01, 03:39:05,VALID,917.127,VALID,0,VALID,95.8797,VALID,0,VALID,18.5734,VALID,156,VALID,0.604297,
2014-01-01, 03:40:05,VALID,917.139,VALID,0,VALID,95.9559,VALID,0,VALID,18.5539,VALID,156,VALID,0.268359,
2014-01-01, 03:41:05,VALID,917.138,VALID,0,VALID,96.0093,VALID,0,VALID,18.5135,VALID,156,VALID,0.394141,
2014-01-01, 03:42:05,VALID,917.154,VALID,0,VALID,96.0932,VALID,0,VALID,18.4954,VALID,156,VALID,0.279297,
2014-01-01, 03:43:05,VALID,917.145,VALID,0,VALID,96.1084,VALID,0,VALID,18.4578,VALID,156,VALID,0,
2014-01-01, 03:44:05,VALID,917.15,VALID,0,VALID,96.1389,VALID,0,VALID,18.3979,VALID,156,VALID,0,
2014-01-01, 03:45:05,VALID,917.157,VALID,0,VALID,96.1618,VALID,0,VALID,18.3784,VALID,156,VALID,0.446484,